Change the Weather History Date:

Saturday, May 26, 2012

  Actual Average (KWRI) Record (KWRI)
Temperature  
Mean Temperature 75 °F -  
Max Temperature 86 °F 71 °F 88 °F (2007)
Min Temperature 64 °F 51 °F 48 °F (2008)
Cooling Degree Days 10    
Growing Degree Days 25 (Base 50)    
Moisture  
Dew Point 66 °F    
Average Humidity 80    
Maximum Humidity 100    
Minimum Humidity 51    
Precipitation  
Precipitation 0.01 in - - ()
Sea Level Pressure  
Sea Level Pressure 30.13 in    
Wind  
Wind Speed 2 mph (SW)    
Max Wind Speed 8 mph    
Max Gust Speed 17 mph    
Visibility 10 miles    
Events      
Averages and records for this station are not official NWS values.
T = Trace of Precipitation, MM = Missing Value Source: NWS Daily Summary

Daily Weather History Graph

Daily Weather History Graph

Search for Another Location

Airport or City:

Trip Planner

Search our weather history database for the weather conditions in past years. The results will help you decide how hot, cold, wet, or windy it might be!

Date:

Astronomy

May. 26, 2012 Rise Set
Actual Time 5:35 AM EDT 8:17 PM EDT
Civil Twilight 5:03 AM EDT 8:49 PM EDT
Nautical Twilight 4:24 AM EDT 9:29 PM EDT
Astronomical Twilight 3:39 AM EDT 10:14 PM EDT
Moon 10:34 AM EDT (5/26) No Moon Set
Length of Visible Light 15h 45m
Length of Day
14h 42m
Waxing Crescent, 28% of the Moon is Illuminated
May 26
Waxing Crescent
May 28
First Quarter
Jun 4
Full
Jun 11
Last Quarter
Jun 19
New

Hourly Weather History & Observations

Time (EDT) Temp. Heat Index Dew Point Humidity Pressure Visibility Wind Dir Wind Speed Gust Speed Precip Events Conditions
12:54 AM 66.9 °F - 64.0 °F 90% 30.13 in 10.0 mi Calm Calm - N/A   Clear
1:54 AM 64.9 °F - 63.0 °F 93% 30.14 in 10.0 mi Calm Calm - N/A   Partly Cloudy
2:20 AM 64.4 °F - 62.6 °F 94% 30.14 in 10.0 mi Calm Calm - N/A   Mostly Cloudy
2:44 AM 64.4 °F - 62.6 °F 94% 30.14 in 10.0 mi Calm Calm - N/A   Scattered Clouds
3:54 AM 64.9 °F - 62.1 °F 90% 30.13 in 10.0 mi Calm Calm - N/A   Clear
4:54 AM 64.0 °F - 62.1 °F 93% 30.14 in 9.0 mi Calm Calm - N/A   Clear
5:54 AM 64.9 °F - 63.0 °F 93% 30.14 in 6.0 mi Calm Calm - 0.01 in   Clear
6:54 AM 66.9 °F - 64.9 °F 93% 30.16 in 9.0 mi Calm Calm - N/A   Clear
7:10 AM 66.2 °F - 64.4 °F 94% 30.17 in 8.0 mi Calm Calm - N/A   Scattered Clouds
7:25 AM 66.2 °F - 66.2 °F 100% 30.16 in 8.0 mi Calm Calm - N/A   Mostly Cloudy
7:54 AM 69.1 °F - 66.9 °F 93% 30.16 in 5.0 mi Variable 3.5 mph - N/A   Overcast
8:32 AM 71.6 °F - 66.2 °F 83% 30.16 in 10.0 mi Variable 3.5 mph - N/A   Overcast
8:54 AM 73.0 °F - 66.9 °F 81% 30.16 in 10.0 mi SW 5.8 mph - N/A   Mostly Cloudy
9:01 AM 73.4 °F - 66.2 °F 78% 30.16 in 10.0 mi SW 5.8 mph - N/A   Mostly Cloudy
9:38 AM 73.4 °F - 68.0 °F 83% 30.15 in 10.0 mi SSW 4.6 mph - N/A   Scattered Clouds
9:54 AM 75.0 °F - 68.0 °F 79% 30.15 in 10.0 mi SW 5.8 mph - N/A   Partly Cloudy
10:54 AM 79.0 °F - 68.0 °F 69% 30.15 in 10.0 mi WSW 4.6 mph - N/A   Clear
11:54 AM 82.0 °F 84.9 °F 68.0 °F 62% 30.15 in 10.0 mi Variable 4.6 mph - N/A   Clear
12:54 PM 84.0 °F 87.0 °F 68.0 °F 58% 30.14 in 10.0 mi SW 8.1 mph - N/A   Clear
1:54 PM 84.9 °F 87.6 °F 66.9 °F 55% 30.12 in 10.0 mi Variable 5.8 mph 17.3 mph N/A   Partly Cloudy
2:54 PM 86.0 °F 88.2 °F 66.0 °F 51% 30.09 in 10.0 mi Variable 5.8 mph - N/A   Scattered Clouds
3:54 PM 82.0 °F 84.9 °F 68.0 °F 62% 30.09 in 10.0 mi Calm Calm - N/A   Clear
4:54 PM 82.0 °F 84.9 °F 68.0 °F 62% 30.08 in 10.0 mi Calm Calm - N/A   Clear
5:54 PM 79.0 °F - 69.1 °F 72% 30.11 in 10.0 mi Calm Calm - N/A   Clear
6:54 PM 79.0 °F - 69.1 °F 72% 30.11 in 10.0 mi Calm Calm - N/A   Clear
7:54 PM 77.0 °F - 69.1 °F 76% 30.12 in 10.0 mi Calm Calm - N/A   Clear
8:54 PM 75.9 °F - 69.1 °F 79% 30.10 in 10.0 mi Variable 4.6 mph - N/A   Unknown
9:54 PM 75.0 °F - 66.9 °F 76% 30.12 in 10.0 mi SW 3.5 mph - N/A   Partly Cloudy
10:54 PM 73.0 °F - 66.0 °F 79% 30.11 in 10.0 mi Calm Calm - N/A   Clear
11:54 PM 72.0 °F - 66.0 °F 81% 30.12 in 10.0 mi Calm Calm - N/A   Clear